[[{"header":{"parameterUnit":"m.s-1","parameterCategory":1,"la1":30.2991,"la2":30.254,"lo1":-89.0895,"lo2":-89.0444,"dx":0.0017,"dy":0.0017,"nx":28,"ny":28,"refTime":"2022-12-24T09:00:00:Z","depth":0,"parameterNumber":2,"parameterNumberName":"U-component_of_WINDS"},"data":[0,0,0,0,0,0,0,0,0,0,0,0,0,0,0,0,0,0,0,0,0,0,0,0,0,0,0,0,0,0,0,0,0,0,0,0,0,0,0,0,0,0,0,0,0,0,0,0,0,0,0,0,0,0,0,0,0,0,2.4029,2.4029,0,2.4018,2.4018,2.4018,2.3982,2.3981,2.398,2.398,2.3968,2.3968,2.3968,0,0,0,0,0,0,0,0,0,0,0,0,0,2.4019,2.402,2.4029,2.4029,2.4029,2.4018,2.4018,2.4018,2.3982,2.3981,2.398,2.3979,2.3967,2.3968,2.3968,0,0,0,0,0,0,0,0,0,0,0,0,0,2.4017,2.402,2.4029,2.401,2.4008,2.4018,2.4018,2.4018,2.3982,2.3981,2.398,2.3979,2.3967,2.3968,2.3969,2.3996,0,0,2.397,2.3971,0,0,0,0,0,0,0,0,2.4018,2.4018,2.4013,2.4011,2.4009,2.4,2.401,2.401,2.3983,2.3992,2.398,2.3978,2.3979,2.3979,2.3979,2.3996,2.3995,2.397,2.3971,2.3971,2.3971,0,0,0,0,0,0,0,2.4018,2.4018,2.4025,2.4013,2.401,2.4002,2.4,2.401,2.3992,2.3991,2.3988,2.3988,2.3978,2.3979,2.3979,2.3995,2.397,2.3971,2.3971,2.3972,2.4034,2.4035,0,0,0,0,0,0,2.4021,2.4018,2.4025,2.4024,2.4011,2.4003,2.4001,2.4004,2.3992,2.3989,2.3989,2.3986,2.3978,2.3978,2.3978,2.401,2.3971,2.3972,2.3972,2.4033,2.4034,2.4036,0,0,0,0,0,0,2.4021,2.4022,2.4025,2.4021,2.402,2.4004,2.4008,2.4005,2.4005,2.399,2.3987,2.3993,2.3977,2.3977,2.3992,2.4009,2.3972,2.3973,2.4031,2.4033,2.4035,2.4074,0,0,0,0,0,0,2.4021,2.4022,2.4032,2.4021,2.4021,2.4039,2.4009,2.4005,2.4007,2.4003,2.3993,2.3991,2.3977,2.3991,2.3993,2.4009,2.3973,2.403,2.4032,2.4034,2.4071,2.4077,2.4082,0,0,0,0,0,2.402,2.4043,2.4033,2.4034,2.4033,2.404,2.404,2.4024,2.4008,2.4018,2.4009,2.3991,2.4007,2.3993,2.3994,2.4011,2.4028,2.4031,2.4034,2.4068,2.4075,2.4081,0,0,0,0,0,0,2.4055,2.4041,2.4029,2.4049,2.4046,2.4034,2.4046,2.4032,2.4033,2.403,2.4009,2.4007,2.4025,2.402,2.4004,2.4038,2.4015,2.4018,2.404,2.4047,2.4052,2.4053,2.3974,0,0,0,0,0,2.4065,2.4073,2.406,2.4078,2.4078,2.4063,2.4065,2.4053,2.4049,2.4047,2.4039,2.4036,2.404,2.4044,2.4047,2.407,2.4068,2.4083,2.4088,2.4093,2.4095,2.4108,2.4114,2.4045,2.4045,2.4045,0,0,2.4086,2.4079,2.4085,2.4085,2.4082,2.409,2.4062,2.4071,2.4077,2.4049,2.4062,2.4056,2.4051,2.4071,2.4079,2.4067,2.4114,2.4096,2.41,2.41,2.4111,2.4118,2.4124,2.4047,2.4047,2.4046,0,0,2.4127,2.4123,2.4138,2.4136,2.4131,2.4121,2.4125,2.4116,2.4111,2.4124,2.4104,2.4111,2.4119,2.4116,2.4116,2.4159,2.4142,2.4161,2.4188,2.4201,2.4206,2.4211,2.4226,2.4232,2.4164,2.4164,2.4164,0,2.4153,2.4165,2.4148,2.4159,2.416,2.4136,2.4152,2.415,2.4147,2.4148,2.4135,2.4145,2.414,2.4159,2.417,2.417,2.4174,2.4161,2.4207,2.4211,2.4216,2.423,2.4235,2.4166,2.4166,2.4165,2.4165,0,2.4197,2.4205,2.4218,2.4216,2.4219,2.4232,2.4218,2.4222,2.4211,2.4202,2.4217,2.421,2.4212,2.4216,2.4204,2.4233,2.4226,2.4211,2.4187,2.4225,2.4237,2.4243,2.4169,2.4168,2.4168,2.4167,0,0,2.4258,2.4248,2.4253,2.4252,2.4246,2.4252,2.4265,2.4267,2.4272,2.4271,2.4281,2.4289,2.4275,2.4275,2.4263,2.4274,2.4308,2.4257,2.4256,2.4266,2.434,2.4351,2.4358,2.4298,2.4299,2.43,2.434,0,2.4297,2.4318,2.4304,2.4327,2.4335,2.4314,2.4325,2.4322,2.4315,2.4321,2.4313,2.4319,2.43,2.43,2.431,2.4302,2.4323,2.4299,2.4307,2.4307,2.4307,2.4364,2.4376,2.4414,2.4345,2.4346,2.4347,0,2.4345,2.4347,2.4371,2.4364,2.4367,2.4377,2.4379,2.4384,2.4382,2.4376,2.4377,2.4363,2.4375,2.4353,2.4369,2.4354,2.4356,2.4353,2.4354,2.4353,2.4328,2.4364,2.4426,2.4432,2.4355,2.4354,2.4353,0,2.4387,2.4395,2.4411,2.4411,2.4404,2.4411,2.4409,2.4405,2.4408,2.4409,2.4411,2.4414,2.4415,2.4418,2.4405,2.4391,2.4424,2.44,2.4419,2.4419,2.4426,2.4425,2.4488,2.4429,2.4429,2.4429,2.4429,0,2.4431,2.4446,2.443,2.4439,2.4456,2.4441,2.4458,2.4453,2.445,2.4458,2.4441,2.4449,2.4432,2.4438,2.4429,2.4444,2.4445,2.444,2.4437,2.4441,2.4442,2.4442,2.4438,2.4431,2.443,2.443,2.443,0,2.4479,2.4469,2.4485,2.4477,2.4476,2.4489,2.4482,2.4491,2.4484,2.4494,2.4496,2.4484,2.4491,2.4479,2.4484,2.4478,2.4499,2.4492,2.45,2.4498,2.4517,2.4515,2.458,2.4588,2.4526,2.4526,2.4527,0,2.4508,2.4519,2.4514,2.4518,2.4517,2.4524,2.4527,2.4513,2.4517,2.4516,2.4525,2.4531,2.4534,2.4546,2.4538,2.4542,2.4535,2.4558,2.4535,2.4539,2.4535,2.4534,2.4535,2.4562,2.4563,2.4564,2.4564,0,2.4559,2.4554,2.4559,2.4563,2.4567,2.457,2.457,2.4575,2.4561,2.4566,2.4573,2.4576,2.4582,2.4588,2.4591,2.4588,2.4574,2.4572,2.4576,2.4579,2.4583,2.4581,2.4512,2.457,2.4569,2.4569,2.4568,2.4568,2.4598,2.4608,2.4605,2.4612,2.4612,2.4613,2.4621,2.4616,2.4621,2.4625,2.4617,2.4627,2.4625,2.4627,2.4626,2.4633,2.4623,2.4629,2.463,2.4632,2.4635,2.4583,2.4633,2.4633,2.4633,2.4633,2.4633,0,2.4648,2.4646,2.4653,2.4655,2.466,2.4648,2.4649,2.4654,2.4662,2.4662,2.4667,2.4675,2.4681,2.4675,2.4679,2.4686,2.468,2.4688,2.4687,2.4686,2.4644,2.4639,2.4693,2.4693,2.4693,2.4693,2.4693,2.4693,2.4675,2.469,2.4685,2.47,2.4698,2.4707,2.4709,2.4711,2.471,2.4721,2.4726,2.4722,2.4719,2.4724,2.4729,2.4727,2.4729,2.4739,2.4735,2.4695,2.4689,2.4683,2.4679,2.474,2.474,2.4776,2.4777,2.4777]},{"header":{"parameterUnit":"m.s-1","parameterCategory":1,"la1":30.2991,"la2":30.254,"lo1":-89.0895,"lo2":-89.0444,"dx":0.0017,"dy":0.0017,"nx":28,"ny":28,"refTime":"2022-12-24T09:00:00:Z","depth":0,"parameterNumber":3,"parameterNumberName":"V-component_of_WINDS"},"data":[0,0,0,0,0,0,0,0,0,0,0,0,0,0,0,0,0,0,0,0,0,0,0,0,0,0,0,0,0,0,0,0,0,0,0,0,0,0,0,0,0,0,0,0,0,0,0,0,0,0,0,0,0,0,0,0,0,0,-7.7565,-7.7567,0,-7.776,-7.7762,-7.7764,-7.772,-7.7716,-7.7713,-7.7709,-7.7905,-7.7913,-7.7922,0,0,0,0,0,0,0,0,0,0,0,0,0,-7.7153,-7.7161,-7.7565,-7.7567,-7.757,-7.7759,-7.7762,-7.7764,-7.7721,-7.7716,-7.7712,-7.7708,-7.7902,-7.7912,-7.7923,0,0,0,0,0,0,0,0,0,0,0,0,0,-7.7338,-7.7163,-7.7564,-7.7571,-7.7573,-7.7759,-7.7762,-7.7765,-7.7722,-7.7716,-7.7711,-7.7705,-7.7899,-7.7911,-7.7924,-7.8114,0,0,-7.7964,-7.7969,0,0,0,0,0,0,0,0,-7.7328,-7.7353,-7.7568,-7.7571,-7.7574,-7.771,-7.7688,-7.7882,-7.7723,-7.7665,-7.7709,-7.7703,-7.7844,-7.7861,-7.791,-7.8123,-7.8132,-7.7965,-7.7973,-7.7978,-7.7982,0,0,0,0,0,0,0,-7.7315,-7.7345,-7.7642,-7.7571,-7.7575,-7.7563,-7.7583,-7.7725,-7.7783,-7.767,-7.7667,-7.7691,-7.7845,-7.7898,-7.7914,-7.8135,-7.7964,-7.7976,-7.7984,-7.7989,-7.8514,-7.852,0,0,0,0,0,0,-7.73,-7.7334,-7.7636,-7.7648,-7.7435,-7.7575,-7.7598,-7.7672,-7.7782,-7.7793,-7.7695,-7.7688,-7.7878,-7.7899,-7.7921,-7.8151,-7.7978,-7.799,-7.7998,-7.8508,-7.8515,-7.8522,0,0,0,0,0,0,-7.7291,-7.7327,-7.7628,-7.749,-7.7528,-7.7588,-7.7672,-7.7679,-7.7731,-7.7801,-7.7811,-7.7739,-7.7875,-7.7903,-7.8067,-7.8157,-7.7996,-7.8008,-7.85,-7.851,-7.8519,-7.8612,0,0,0,0,0,0,-7.7279,-7.7324,-7.7398,-7.7492,-7.7535,-7.7772,-7.7677,-7.7686,-7.7754,-7.7746,-7.7844,-7.7855,-7.7872,-7.8048,-7.808,-7.8172,-7.8018,-7.8493,-7.8505,-7.8516,-7.8601,-7.8623,-7.8642,0,0,0,0,0,-7.7265,-7.7415,-7.7402,-7.7438,-7.7629,-7.7777,-7.7801,-7.7819,-7.7761,-7.7835,-7.788,-7.7852,-7.8142,-7.8065,-7.81,-7.8198,-7.8487,-7.8501,-7.8515,-7.8592,-7.8619,-7.8642,0,0,0,0,0,0,-7.7328,-7.7428,-7.7414,-7.7599,-7.768,-7.7769,-7.7863,-7.7847,-7.7945,-7.7934,-7.7951,-7.7974,-7.8141,-7.8186,-7.8098,-7.8388,-7.8306,-7.8328,-7.8353,-7.8379,-7.8399,-7.8385,-7.8029,0,0,0,0,0,-7.7364,-7.7477,-7.7558,-7.7714,-7.7755,-7.7803,-7.7868,-7.7875,-7.7959,-7.7992,-7.8049,-7.8131,-7.824,-7.8312,-7.8416,-7.8607,-7.8628,-7.8692,-7.8713,-7.8729,-7.8748,-7.8852,-7.8882,-7.8567,-7.8567,-7.8567,0,0,-7.7439,-7.7507,-7.7577,-7.7728,-7.7792,-7.7908,-7.7831,-7.7957,-7.8043,-7.8011,-7.817,-7.8215,-7.8307,-7.8485,-7.8566,-7.8527,-7.8839,-7.8747,-7.876,-7.8769,-7.8869,-7.8899,-7.8926,-7.8577,-7.8575,-7.8574,0,0,-7.7634,-7.7698,-7.7835,-7.7901,-7.7998,-7.8029,-7.8062,-7.8154,-7.8183,-7.8343,-7.8321,-7.8423,-7.8611,-7.8678,-7.8736,-7.8958,-7.8936,-7.8992,-7.9099,-7.9201,-7.9226,-7.9248,-7.9327,-7.9355,-7.901,-7.901,-7.901,0,-7.7715,-7.789,-7.7907,-7.8036,-7.8103,-7.808,-7.8219,-7.8282,-7.8408,-7.8454,-7.8409,-7.8645,-7.8706,-7.89,-7.8954,-7.9002,-7.904,-7.8981,-7.9221,-7.9243,-7.9264,-7.934,-7.937,-7.9016,-7.9016,-7.9015,-7.9014,0,-7.7984,-7.8106,-7.8205,-7.8329,-7.8407,-7.854,-7.8577,-7.8654,-7.8654,-7.8689,-7.8852,-7.8924,-7.9043,-7.909,-7.9091,-7.9284,-7.9257,-7.9217,-7.9135,-7.93,-7.9371,-7.9401,-7.9025,-7.9023,-7.9021,-7.902,0,0,-7.8225,-7.8357,-7.8393,-7.845,-7.8556,-7.865,-7.8782,-7.8899,-7.8965,-7.9053,-7.9163,-7.9324,-7.9287,-7.9354,-7.9362,-7.9452,-7.9623,-7.94,-7.9402,-7.9439,-7.9841,-7.9871,-7.9904,-7.9609,-7.9614,-7.9619,-7.9833,0,-7.843,-7.8664,-7.8684,-7.8893,-7.9006,-7.8986,-7.9101,-7.9178,-7.9215,-7.9315,-7.9354,-7.9468,-7.9411,-7.9451,-7.9539,-7.9584,-7.9704,-7.9568,-7.9711,-7.9716,-7.9689,-7.9942,-7.9974,-8.0172,-7.9861,-7.9866,-7.9869,0,-7.8701,-7.8798,-7.902,-7.9111,-7.9159,-7.9262,-7.9371,-7.9468,-7.9555,-7.9575,-7.965,-7.9646,-7.9781,-7.9695,-7.988,-7.9788,-7.9847,-7.9878,-7.9887,-7.99,-7.9803,-7.9962,-8.0236,-8.0266,-7.9913,-7.991,-7.9907,0,-7.8854,-7.9041,-7.9197,-7.9246,-7.9356,-7.9429,-7.9478,-7.956,-7.963,-7.9725,-7.977,-7.988,-7.994,-8.0024,-8.005,-7.9985,-8.0236,-8.0151,-8.0255,-8.0255,-8.0309,-8.0305,-8.0596,-8.0348,-8.0347,-8.0346,-8.0346,0,-7.9082,-7.9218,-7.9268,-7.9365,-7.9517,-7.9538,-7.9687,-7.9732,-7.9805,-7.9909,-7.9899,-7.9996,-8.0025,-8.0128,-8.0148,-8.0299,-8.0326,-8.0346,-8.035,-8.0347,-8.0345,-8.0386,-8.0373,-8.0354,-8.0353,-8.0351,-8.035,0,-7.9279,-7.9318,-7.9488,-7.9578,-7.9604,-7.9712,-7.979,-7.9882,-7.9917,-8.0049,-8.0081,-8.0136,-8.0256,-8.0291,-8.0435,-8.0449,-8.0626,-8.0617,-8.0597,-8.0597,-8.07,-8.069,-8.1028,-8.1073,-8.0795,-8.0797,-8.0799,0,-7.9421,-7.9526,-7.9628,-7.9698,-7.9751,-7.9863,-7.9934,-7.9959,-8.0034,-8.0141,-8.0221,-8.034,-8.0437,-8.063,-8.0682,-8.0792,-8.0786,-8.0897,-8.0802,-8.0796,-8.0788,-8.0781,-8.0792,-8.0914,-8.0917,-8.092,-8.0921,0,-7.967,-7.9685,-7.9789,-7.99,-7.9986,-8.0075,-8.016,-8.0217,-8.0254,-8.0338,-8.0462,-8.0537,-8.0685,-8.0804,-8.0916,-8.0965,-8.095,-8.0951,-8.0981,-8.0979,-8.0964,-8.0974,-8.0646,-8.0943,-8.0941,-8.0939,-8.0938,-8.0937,-7.9845,-7.9937,-8.0024,-8.014,-8.0207,-8.0287,-8.0379,-8.0426,-8.053,-8.0653,-8.0661,-8.0795,-8.0879,-8.1028,-8.1084,-8.1188,-8.1155,-8.1199,-8.121,-8.122,-8.1229,-8.0947,-8.1209,-8.1208,-8.1208,-8.1207,-8.1207,0,-8.0093,-8.0148,-8.0255,-8.0375,-8.0467,-8.0446,-8.0539,-8.0617,-8.0735,-8.0816,-8.0912,-8.1054,-8.1169,-8.123,-8.1344,-8.1416,-8.1412,-8.1446,-8.144,-8.1452,-8.1252,-8.1215,-8.1447,-8.1447,-8.1447,-8.1447,-8.1447,-8.1447,-8.0233,-8.0388,-8.0413,-8.0601,-8.0655,-8.0788,-8.0843,-8.0916,-8.0981,-8.1141,-8.1237,-8.1276,-8.1349,-8.1469,-8.1573,-8.1588,-8.163,-8.1668,-8.1679,-8.1491,-8.1466,-8.1443,-8.1408,-8.1677,-8.1677,-8.187,-8.1872,-8.1874]}]]